FW6591 Weather Reports


Display with metric or nautical units.
time (UTC)temp
F
wind
direction
speed
MPH
gust
MPH
rain 1hr
in
rain 24hr
in
rain mn
in
humidity
%
barometer
mb
20260905174550 56 193 2.0 4.0 0.00 0.00 0.00 80 1030.5
20260905173108 57 218 1.0 4.0 0.00 0.00 0.00 79 1030.0
20260905171553 57 223 2.0 5.0 0.00 0.00 0.00 77 1030.0
20260905170050 58 236 2.0 5.0 0.00 0.00 0.00 76 1029.9
20260905164548 58 217 1.0 4.0 0.00 0.00 0.00 75 1029.6
20260905163100 59 248 3.0 6.0 0.00 0.00 0.00 73 1029.6
20260905161551 59 222 3.0 6.0 0.00 0.00 0.00 73 1029.6
20260905160100 59 0 0.0 2.0 0.00 0.00 0.00 74 1029.4
20260905154557 60 0 0.0 2.0 0.00 0.00 0.00 71 1029.3
20260905153045 60 165 1.0 3.0 0.00 0.00 0.00 70 1029.2
20260905151552 61 0 0.0 2.0 0.00 0.00 0.00 68 1029.2
20260905150055 62 0 0.0 2.0 0.00 0.00 0.00 63 1029.0
20260905144553 62 222 0.0 3.0 0.00 0.00 0.00 64 1028.8
20260905143057 61 191 1.0 4.0 0.00 0.00 0.00 63 1028.9
20260905141609 61 0 1.0 5.0 0.00 0.00 0.00 63 1028.9
20260905140058 61 95 1.0 4.0 0.00 0.00 0.00 63 1028.8
20260905134607 61 202 2.0 6.0 0.00 0.00 0.00 64 1028.6
20260905133057 61 173 4.0 6.0 0.00 0.00 0.00 67 1028.8
20260905131556 62 244 1.0 5.0 0.00 0.00 0.00 63 1028.9
20260905130101 61 0 1.0 5.0 0.00 0.00 0.00 67 1029.0
20260905124555 59 40 0.0 2.0 0.00 0.00 0.00 72 1029.3
20260905123056 58 217 2.0 4.0 0.00 0.00 0.00 71 1029.5
20260905121545 57 213 1.0 4.0 0.00 0.00 0.00 73 1030.0
20260905120058 56 219 0.0 3.0 0.00 0.00 0.00 74 1030.0
20260905114626 56 203 2.0 7.0 0.00 0.00 0.00 75 1030.2
20260905113050 56 212 4.0 8.0 0.00 0.00 0.00 73 1030.5
20260905111553 56 200 1.0 4.0 0.00 0.00 0.00 76 1030.6
20260905110044 56 223 1.0 7.0 0.00 0.00 0.00 74 1030.8
20260905104553 55 227 1.0 4.0 0.00 0.00 0.00 75 1030.7
20260905103052 56 245 2.0 6.0 0.00 0.00 0.00 73 1031.0
20260905101557 54 157 4.0 8.0 0.00 0.00 0.00 77 1031.4
20260905100114 53 212 2.0 5.0 0.00 0.00 0.00 80 1031.6
20260905094610 52 242 3.0 7.0 0.00 0.00 0.00 81 1032.1
20260905093059 52 192 3.0 6.0 0.00 0.00 0.00 83 1032.3
20260905091612 51 82 1.0 4.0 0.00 0.00 0.00 82 1032.6
20260905090056 50 136 1.0 3.0 0.00 0.00 0.00 81 1032.6
20260905084553 50 182 1.0 3.0 0.00 0.00 0.00 82 1032.3
20260905083050 50 215 1.0 3.0 0.00 0.00 0.00 84 1032.9
20260905081556 50 106 2.0 5.0 0.00 0.00 0.00 82 1032.8
20260905080056 50 217 0.0 3.0 0.00 0.00 0.00 81 1032.8
20260905074600 50 222 0.0 2.0 0.00 0.02 0.00 83 1032.8
20260905073108 49 125 1.0 5.0 0.00 0.02 0.00 84 1032.6
20260905071558 49 171 2.0 4.0 0.00 0.02 0.00 86 1032.3
20260905070047 48 215 0.0 2.0 0.00 0.02 0.00 88 1032.6
20260905064608 47 214 0.0 2.0 0.00 0.04 0.00 90 1032.3
20260905063053 46 0 1.0 2.0 0.00 0.04 0.00 90 1032.3
20260905061613 46 235 1.0 2.0 0.00 0.04 0.00 91 1032.3
20260905054602 44 0 0.0 1.0 0.00 0.05 0.00 92 1032.3
20260905053056 44 0 0.0 0.0 0.00 0.05 0.00 93 1032.3
20260905051610 43 0 0.0 0.0 0.00 0.05 0.00 92 1032.2
20260905050056 43 0 0.0 0.0 0.00 0.05 0.00 92 1032.2
20260905044559 42 0 0.0 2.0 0.00 0.05 0.00 92 1032.1
20260905043049 43 0 1.0 4.0 0.00 0.05 0.00 92 1032.1
20260905041558 43 0 0.0 2.0 0.00 0.05 0.00 92 1031.7
20260905040058 43 319 0.0 2.0 0.00 0.05 0.00 92 1031.6
20260905034605 42 360 0.0 2.0 0.00 0.05 0.00 92 1031.4
20260905033102 43 0 0.0 2.0 0.00 0.05 0.00 92 1031.1
20260905031613 43 0 1.0 2.0 0.00 0.05 0.00 91 1030.9
20260905030054 43 0 0.0 2.0 0.00 0.05 0.00 91 1030.8
20260905024554 43 0 0.0 2.0 0.00 0.06 0.00 91 1030.7
20260905023122 43 0 0.0 0.0 0.00 0.06 0.00 91 1030.7
20260905021546 43 351 0.0 2.0 0.00 0.06 0.00 91 1030.8
20260905020059 43 348 2.0 3.0 0.00 0.06 0.00 91 1030.8
20260905014555 43 360 2.0 4.0 0.00 0.07 0.00 91 1030.8
20260905013049 42 351 1.0 3.0 0.00 0.07 0.00 91 1030.8
20260905011556 42 349 3.0 4.0 0.00 0.07 0.00 91 1030.9
20260905010047 43 351 0.0 2.0 0.00 0.07 0.00 90 1031.2
20260905004556 43 345 2.0 3.0 0.00 0.11 0.00 90 1031.5
20260905003050 43 0 0.0 2.0 0.00 0.11 0.00 90 1031.3
20260905001546 43 0 0.0 2.0 0.00 0.11 0.00 90 1031.5
20260905000113 43 346 1.0 3.0 0.00 0.11 0.00 90 1031.6
20260904234557 43 0 2.0 4.0 0.00 0.11 0.00 90 1031.9
20260904233050 43 0 0.0 2.0 0.00 0.11 0.00 89 1031.7
20260904231548 43 348 1.0 4.0 0.00 0.11 0.00 89 1032.0
20260904230058 43 239 0.0 2.0 0.00 0.11 0.00 89 1032.2
20260904224603 44 350 2.0 4.0 0.00 0.11 0.00 89 1032.6
20260904223054 44 0 0.0 8.0 0.00 0.11 0.00 89 1032.6
20260904221600 44 200 1.0 2.0 0.00 0.11 0.00 89 1032.5
20260904220112 44 202 0.0 2.0 0.00 0.11 0.00 89 1032.3
20260904214549 45 0 0.0 3.0 0.00 0.11 0.11 88 1032.1
20260904213051 45 191 0.0 1.0 0.00 0.11 0.11 88 1032.1
20260904211554 45 0 0.0 2.0 0.00 0.11 0.11 88 1032.5
20260904210059 45 221 0.0 4.0 0.00 0.11 0.11 88 1032.5
20260904204558 46 192 2.0 5.0 0.00 0.11 0.11 88 1032.4
20260904203050 46 177 3.0 7.0 0.00 0.11 0.11 88 1032.8
20260904201548 46 188 4.0 6.0 0.00 0.11 0.11 88 1033.0
20260904200045 46 214 3.0 5.0 0.00 0.11 0.11 87 1033.0
20260904194601 47 213 3.0 6.0 0.00 0.11 0.11 86 1033.0
20260904193049 47 195 5.0 8.0 0.00 0.11 0.11 85 1032.9
20260904191550 48 210 3.0 6.0 0.00 0.11 0.11 84 1033.1
20260904190059 48 168 4.0 8.0 0.00 0.11 0.11 83 1033.1
20260904184557 49 14 4.0 8.0 0.00 0.11 0.11 81 1033.2
20260904183049 50 195 5.0 11.0 0.00 0.11 0.11 80 1033.4
20260904181606 51 183 4.0 9.0 0.00 0.11 0.11 79 1033.5
20260904180116 51 180 5.0 10.0 0.00 0.11 0.11 78 1033.4